Regional Weather Roundup
Issued by NWS Sterling, VA

Home | Current Version | Previous Version | Text Only | Print | Product List | Glossary Off
Versions: 1 2 3 4 5 6 7 8 9 10 11 12 13 14 15 16 17 18 19 20 21 22 23 24 25 26 27

000
ASUS41 KLWX 281811
RWRLWX

REGIONAL WEATHER ROUNDUP
NATIONAL WEATHER SERVICE BALTIMORE MD/WASHINGTON DC
200 PM EDT FRI APR 28 2017

Note: "FAIR" indicates few or no clouds below 12,000 feet
with no significant weather and/or obstructions to visibility.
 TC=TEMPERATURE CELSIUS

 * =Non NWS site. Station does not report precipitation (e.g. rain,
    snow, etc.), thunder, or fog.

DCZ001-MDZ009-015-VAZ040>042-051-053>054-281900-
WASHINGTON METRO

CITY           SKY/WX    TMP DP  RH WIND       PRES   REMARKS
WASHINGTON NAT MOSUNNY   82  60  47 S12       30.03F
DULLES         MOSUNNY   79  57  46 E9        30.03F
ANDREWS AFB    SUNNY     82  56  42 CALM      30.03F
FT BELVOIR     SUNNY     83  55  39 S9        30.04S
QUANTICO       MOSUNNY   80  63  55 SW7       30.05S
COLLEGE PARK*  SUNNY     81  58  46 W5        30.03S
LEESBURG*      SUNNY     82  59  44 SW5       30.04F
MANASSAS*        N/A     82  60  47 CALM      30.03F

$$

MDZ006>007-011-014-281900-
BALTIMORE METRO

CITY           SKY/WX    TMP DP  RH WIND       PRES   REMARKS
BWI AIRPORT    MOSUNNY   82  58  43 SW5G17    30.02F
MD SCIENCE CTR   N/A     85  53  33 MISG      30.03S
MARTIN STATE   MOSUNNY   79  64  61 SE13      30.05R
ANNAPOLIS      SUNNY     76  62  62 SE12      30.03F
FORT MEADE*    SUNNY     81  55  41 S7        30.05F

$$

MDZ012-015-019>023-281900-
MARYLAND EASTERN SHORE

CITY           SKY/WX    TMP DP  RH WIND       PRES   REMARKS
OCEAN CITY     SUNNY     70  63  78 S8        30.05S
SALISBURY      MOSUNNY   83  62  49 S6        30.04S
BAY BRIDGE AP* SUNNY     82  59  44 S7        30.04S
CAMBRIDGE*     SUNNY     81  55  41 NW7       30.04F
EASTON*        SUNNY     82  55  39 NW5       30.08S

$$

MDZ017>025-281900-
SOUTHERN MARYLAND

CITY           SKY/WX    TMP DP  RH WIND       PRES   REMARKS
PATUXENT RIVER MOSUNNY   77  64  64 SE8       30.05S
ST INIGOES     SUNNY     81  59  47 VRB7      30.04F
LEONARDTOWN*   SUNNY     79  55  44 NE7       30.06S

$$

MDZ003>005-281900-
NORTH CENTRAL MARYLAND

CITY           SKY/WX    TMP DP  RH WIND       PRES   REMARKS
FREDERICK*     SUNNY     81  61  50 CALM      30.06F
HAGERSTOWN APT SUNNY     78  53  41 SW7       30.04F
WESTMINSTER*   SUNNY     81  54  39 NW7       30.05S

$$

MDZ501>502-281900-
WESTERN MARYLAND

CITY           SKY/WX    TMP DP  RH WIND       PRES   REMARKS
OAKLAND*       CLOUDY    70  43  37 S8        30.09F
CUMBERLAND*    SUNNY     79  54  41 SE6       30.06F

$$

VAZ025>031-281900-
SHENANDOAH VALLEY

CITY           SKY/WX    TMP DP  RH WIND       PRES   REMARKS
WINCHESTER*    SUNNY     79  54  41 CALM      30.03F
FRONT ROYAL*   SUNNY     81  57  44 SE6       30.02S
LURAY*         SUNNY     81  54  39 S8        30.03F
NEW MARKET*    SUNNY     80  53  39 S8        30.02F
STAUNTON*      MOSUNNY   80  57  46 S8        30.07S
WAYNESBORO*    MOSUNNY   78  61  55 S3        30.07S

$$

WVZ021-048>050-054>055-281900-
EASTERN WEST VIRGINIA PANHANDLE

CITY           SKY/WX    TMP DP  RH WIND       PRES   REMARKS
MARTINSBURG    SUNNY     79  56  45 S7        30.03F
PETERSBURG*    SUNNY     82  57  42 E5        30.01F

$$

VAZ036>039-050-281900-
CENTRAL FOOTHILLS

CITY           SKY/WX    TMP DP  RH WIND       PRES   REMARKS
CHARLOTTESVILL SUNNY     84  58  40 CALM      30.03F
CULPEPER*      PTSUNNY   82  60  47 S7        30.04S
ORANGE*        MOSUNNY   81  61  50 E3        30.03F
GORDONSVILLE*  SUNNY     82  60  47 SW5       30.03F
WARRENTON*     MOSUNNY   84  54  35 SW6       30.03F

$$

VAZ055>057-281900-
NORTH AND CENTRAL PIEDMONT

CITY           SKY/WX    TMP DP  RH WIND       PRES   REMARKS
FREDERICKSBRG* MOSUNNY   82  63  51 E8        30.03S
STAFFORD*      MOSUNNY   79  61  54 E6        30.08R

$$

NCZ024-NYZ072-PAZ021-071-VAZ022-071-281900-
OTHER REGIONAL OBSERVATIONS

CITY           SKY/WX    TMP DP  RH WIND       PRES   REMARKS
NEW YORK CITY  SUNNY     82  56  40 VRB6      30.01F
PHILADELPHIA   SUNNY     82  49  31 SW10      30.01S
PITTSBURGH     CLOUDY    67  44  43 S7        30.04F
ROANOKE        MOSUNNY   79  62  56 SE8       30.07F
RICHMOND       PTSUNNY   83  66  56 SW8G23    30.04S
RALEIGH        PTSUNNY   83  69  62 SW9       30.07F

$$

ANZ530>537-281900-
MARINE OBSERVATIONS

STATION/POSITION TIME  TEMP    WIND        PRES
                       AIR SEA DIR/SP/G
                 (UTC) (F)     (DEG/KT/KT) (MB)
THOMAS PT LIGHT  1800   75 59  140/ 10/ 10   N/A
BALT KEY BRIDGE  1748   73     130/ 10/ 13 1016.9S
COVE POINT       1748   71     200/  2/  3 1018.2F
LEWISETTA        1748   69 66  100/  6/  7 1017.3F
SOLOMONS ISLAND  1748   72 63  100/  7/  7   N/A
PINEY POINT      1748          140/  3/  3   N/A

$$





USA.gov is the U.S. government's official web portal to all federal, state and local government web resources and services.